Regional Weather Roundup
Issued by NWS

Home | Current Version | Previous Version | Graphics & Text | Print | Product List | Glossary On
Versions: 1 2 3 4 5 6 7 8 9 10 11 12 13 14 15 16 17 18 19 20 21 22 23 24 25 26 27 28 29 30 31 32 33 34 35 36 37 38 39 40 41 42 43 44 45 46 47 48 49 50
000
ASUS44 KMEG 262110
RWRTN
TENNESSEE HOURLY STATE WEATHER ROUNDUP
NATIONAL WEATHER SERVICE MEMPHIS TN
400 PM CDT TUE AUG 26 2014

TNZ002-004-019-021-049-052-054-088>092-262200-
WEST TENNESSEE

CITY           SKY/WX    TMP DP  RH WIND       PRES   REMARKS
MEMPHIS INTL   MOSUNNY   91  68  46 SE7       30.04F HX  95
NWS MEMPHIS      N/A     92 N/A N/A MISG        N/A
JACKSON        PTSUNNY   88  73  61 VRB3      30.05F HX  95
DYERSBURG      CLOUDY    81  64  57 E22G32    30.06R THUNDER
UNION CITY     PTSUNNY   73  72  94 SW7       30.02F
PARIS          MOSUNNY   82  70  65 NE5       30.06F
HUNTINGDON     MOSUNNY   87  73  62 SE9       30.04F HX  94
LEXINGTON      MOSUNNY   88  70  55 VRB3      30.05F HX  92
SAVANNAH       SUNNY     88  68  51 S6        30.06F HX  91
$$

TNZ008-025-027-028-033-062-065-066-262200-
NORTH MIDDLE TENNESSEE

CITY           SKY/WX    TMP DP  RH WIND       PRES   REMARKS
NASHVILLE      MOSUNNY   88  68  51 E8        30.07F HX  91
DICKSON        SUNNY     88  70  55 SW5       30.07F HX  92
CLARKSVILLE    MOSUNNY   88  73  61 S7        30.04F HX  95
LEBANON        SUNNY     87  68  53 CALM      30.06F HX  90
SMYRNA         SUNNY     88  69  53 CALM      30.08F HX  92
MURFREESBORO   SUNNY     85  67  54 E7        30.07F
COOKEVILLE     MOSUNNY   88  70  55 CALM      30.10F HX  92
LIVINGSTON     SUNNY     83  68  60 VRB6      30.11
GALLATIN       SUNNY     88  71  56 S3        30.08F HX  93
CROSSVILLE     MOSUNNY   83  63  50 NE6       30.13F
$$

TNZ061-075-076-078-094-096-097-262200-
SOUTH MIDDLE TENNESSEE

CITY           SKY/WX    TMP DP  RH WIND       PRES   REMARKS
LEWISBURG      SUNNY     84  65  52 S3        30.08F
FAYETTEVILLE   MOSUNNY   81  64  57 CALM      30.09F
TULLAHOMA      SUNNY     82  64  54 CALM      30.11F
WINCHESTER     MOSUNNY   82  66  57 N9        30.09F
MCMINNVILLE    MOSUNNY   82  70  65 N3        30.10F
COLUMBIA       SUNNY     88  70  55 CALM      30.07F HX  92
SHELBYVILLE    SUNNY     86  70  58 VRB3      30.09F HX  90
$$

TNZ017-018-042-046-047-262200-
NORTHEAST TENNESSEE

CITY           SKY/WX    TMP DP  RH WIND       PRES   REMARKS
TRI CITIES     MOSUNNY   84  57  39 N5        30.12F
ELIZABETHTON   CLEAR     82  57  42 W5        30.12F
$$

TNZ012-013-036-069-073-074-262200-
CENTRAL EAST TENNESSEE

CITY           SKY/WX    TMP DP  RH WIND       PRES   REMARKS
KNOXVILLE      MOSUNNY   84  66  54 E7        30.07F
OAK RIDGE      MOSUNNY   86  66  51 SE3       30.09F
GATLINBURG     PTCLDY    82  63  51 VRB3      30.09S
MORRISTOWN     CLEAR     82  63  51 VRB3      30.12S
$$

TNZ083-085-099-262200-
SOUTHEAST TENNESSEE

CITY           SKY/WX    TMP DP  RH WIND       PRES   REMARKS
CHATTANOOGA    MOSUNNY   88  63  43 N10       30.07F
$$

SKY/WX REPORTED AS FAIR MEANS FEW OR NO CLOUDS BELOW
12 THOUSAND FEET.



USA.gov is the U.S. government's official web portal to all federal, state and local government web resources and services.